Location: Bad Salzschlirf
(50.3750°N, 9.3000°E)
Time: 03:39:44
(UTC+02:00)

ISS - Pass Details

Date: 15 July 2025
Orbit: 413 x 417 km, 51.6° (Epoch: 12 July)

Event Time Altitude Azimuth Distance (km) Brightness Sun altitude
Rises 01:57:23 0° 285° (WNW) 2,356 0.2 -17.8°
Reaches altitude 10° 01:59:41 10° 272° (W) 1,491 -1.0 -17.8°
Enters shadow 02:00:23 14° 265° (W) 1,257 -1.5 -17.8°
